W5PDB Weather Reports


Display with metric or nautical units.
time (UTC)temp
F
wind
direction
speed
MPH
gust
MPH
rain 1hr
in
rain 24hr
in
rain mn
in
humidity
%
barometer
mb
20260506001204 54 68 6.0 8.0 0.00 0.00 0.00 15 1018.2
20260505235205 55 68 5.0 10.0 0.00 0.00 0.00 15 1018.2
20260505233204 55 22 4.0 11.0 0.00 0.00 0.00 15 1018.2
20260505232205 55 45 3.0 11.0 0.00 0.00 0.00 15 1018.1
20260505231204 55 22 8.0 9.0 0.00 0.00 0.00 15 1018.1
20260505230206 55 68 6.0 10.0 0.00 0.00 0.00 15 1018.1
20260505225205 56 45 8.0 8.0 0.00 0.00 0.00 15 1018.1
20260505224204 56 112 6.0 11.0 0.00 0.00 0.00 15 1017.0
20260505222205 56 68 9.0 10.0 0.00 0.00 0.00 15 1017.0
20260505221205 56 68 6.0 12.0 0.00 0.00 0.00 15 1015.9
20260505220206 57 68 9.0 11.0 0.00 0.00 0.00 15 1015.9
20260505214205 57 68 8.0 13.0 0.00 0.00 0.00 14 1015.8
20260505213205 57 68 5.0 6.0 0.00 0.00 0.00 14 1014.8
20260505211205 58 68 7.0 10.0 0.00 0.00 0.00 14 1014.7
20260505205205 58 22 9.0 14.0 0.00 0.00 0.00 14 1015.8
20260505204205 58 45 6.0 12.0 0.00 0.00 0.00 14 1015.8
20260505203205 58 22 8.0 13.0 0.00 0.00 0.00 14 1015.8
20260505202204 58 22 6.0 13.0 0.00 0.00 0.00 14 1015.8
20260505201205 58 68 9.0 11.0 0.00 0.00 0.00 14 1015.8
20260505194205 58 22 7.0 5.0 0.00 0.00 0.00 14 1015.8
20260505193205 58 22 5.0 5.0 0.00 0.00 0.00 14 1015.7
20260505192205 58 22 5.0 9.0 0.00 0.00 0.00 14 1015.7
20260505191204 59 45 4.0 9.0 0.00 0.00 0.00 14 1015.7
20260505190205 59 22 7.0 10.0 0.00 0.00 0.00 14 1015.7
20260505185205 59 68 7.0 12.0 0.00 0.00 0.00 14 1015.7
20260505184205 60 22 7.0 14.0 0.00 0.00 0.00 14 1015.6
20260505183205 60 90 8.0 14.0 0.00 0.00 0.00 14 1015.6
20260505182205 61 315 9.0 11.0 0.00 0.00 0.00 14 1015.5
20260505181205 61 22 8.0 9.0 0.00 0.00 0.00 14 1015.5
20260505180206 60 68 7.0 0.0 0.00 0.00 0.00 14 1015.6
20260505175205 60 0.0 0.0 0.00 0.00 0.00 14 1015.6
20260505174205 59 0.0 0.0 0.00 0.00 0.00 14 1015.7
20260505173205 58 0.0 0.0 0.00 0.00 0.00 14 1015.7
20260505172205 58 0.0 0.0 0.00 0.00 0.00 14 1015.7
20260505171205 58 0.0 0.0 0.00 0.00 0.00 14 1014.7
20260505170205 58 0.0 0.0 0.00 0.00 0.00 14 1015.8
20260505165204 57 0.0 0.0 0.00 0.00 0.00 15 1015.9
20260505164205 57 0.0 0.0 0.00 0.00 0.00 15 1015.9
20260505163205 56 0.0 0.0 0.00 0.00 0.00 15 1015.9
20260505162205 56 0.0 0.0 0.00 0.00 0.00 15 1015.9
20260505161205 56 0.0 0.0 0.00 0.00 0.00 15 1014.9
20260505160205 56 0.0 0.0 0.00 0.00 0.00 15 1013.9
20260505152206 56 0.0 0.0 0.00 0.00 0.00 15 1013.9
20260505151205 56 0.0 0.0 0.00 0.00 0.00 15 1013.9
20260505140205 56 0.0 0.0 0.00 0.00 0.00 15 1011.8
20260505124205 57 0.0 0.0 0.00 0.00 0.00 14 1010.6
20260505122205 57 0.0 0.0 0.00 0.00 0.00 14 1010.6
20260505120206 58 45 9.0 10.0 0.00 0.00 0.00 14 1009.5
20260505115205 58 68 7.0 7.0 0.00 0.00 0.00 14 1009.5
20260505114205 59 0.0 0.0 0.00 0.00 0.00 14 1009.4
20260505113205 59 0.0 0.0 0.00 0.00 0.00 14 1008.3
20260505111205 60 0.0 11.0 0.00 0.00 0.00 14 1007.2
20260505110205 61 68 9.0 11.0 0.00 0.00 0.00 14 1007.2
20260505102205 65 0.0 0.0 0.00 0.00 0.00 15 1006.8
20260505101205 66 0.0 4.0 0.00 0.00 0.00 15 1006.8
20260505100204 67 68 4.0 7.0 0.00 0.00 0.00 17 1006.6
20260505095206 67 68 4.0 11.0 0.00 0.00 0.00 22 1006.6
20260505092204 66 135 6.0 11.0 0.00 0.00 0.00 23 1005.7
20260505091205 65 45 6.0 10.0 0.00 0.00 0.00 24 1005.7
20260505090205 65 22 4.0 10.0 0.00 0.00 0.00 24 1005.8
20260505085205 65 68 7.0 9.0 0.00 0.00 0.00 24 1005.8
20260505084204 65 90 4.0 8.0 0.00 0.00 0.00 24 1004.7
20260505083205 65 22 4.0 8.0 0.00 0.00 0.00 24 1004.7
20260505082205 65 45 5.0 6.0 0.00 0.00 0.00 24 1004.7
20260505081206 65 45 4.0 6.0 0.00 0.00 0.00 24 1004.7
20260505075205 65 68 4.0 4.0 0.00 0.00 0.00 24 1004.7
20260505074205 65 22 0.0 5.0 0.00 0.00 0.00 23 1003.6
20260505073206 66 68 3.0 5.0 0.00 0.00 0.00 23 1004.6
20260505072204 66 68 4.0 0.0 0.00 0.00 0.00 22 1004.6
20260505071205 67 0.0 0.0 0.00 0.00 0.00 20 1004.6
20260505070205 67 0.0 4.0 0.00 0.00 0.00 17 1004.5
20260505065205 68 112 4.0 6.0 0.00 0.00 0.00 17 1004.5
20260505064205 69 112 4.0 6.0 0.00 0.00 0.00 17 1004.4
20260505063206 69 158 2.0 8.0 0.00 0.00 0.00 17 1004.4
20260505062204 68 112 6.0 8.0 0.00 0.00 0.00 17 1004.4
20260505061205 68 68 4.0 6.0 0.00 0.00 0.00 15 1004.4
20260505060205 68 68 4.0 5.0 0.00 0.00 0.00 15 1004.4
20260505054205 69 112 3.0 8.0 0.00 0.00 0.00 15 1005.4
20260505052205 69 68 3.0 4.0 0.00 0.00 0.00 12 1004.4
20260505051205 70 112 4.0 4.0 0.00 0.00 0.00 12 1004.3
20260505050206 71 112 4.0 9.0 0.00 0.00 0.00 12 1004.2
20260505041204 72 68 3.0 6.0 0.00 0.00 0.00 11 1005.2
20260505040206 72 68 5.0 6.0 0.00 0.00 0.00 11 1005.2
20260505035205 72 112 6.0 7.0 0.00 0.00 0.00 11 1005.2
20260505034205 72 112 6.0 9.0 0.00 0.00 0.00 11 1005.1
20260505033205 73 68 4.0 9.0 0.00 0.00 0.00 11 1005.1
20260505032205 73 68 7.0 8.0 0.00 0.00 0.00 11 1005.1
20260505031206 73 135 5.0 9.0 0.00 0.00 0.00 11 1005.1
20260505030205 73 112 6.0 9.0 0.00 0.00 0.00 11 1005.1
20260505025206 73 68 7.0 9.0 0.00 0.00 0.00 11 1005.1
20260505024205 74 112 6.0 9.0 0.00 0.00 0.00 11 1004.0
20260505023204 75 112 6.0 9.0 0.00 0.00 0.00 10 1003.9
20260505022205 76 135 5.0 9.0 0.00 0.00 0.00 10 1003.8
20260505021205 76 112 6.0 11.0 0.00 0.00 0.00 10 1003.8
20260505020205 76 158 6.0 12.0 0.00 0.00 0.00 10 1003.8
20260505014205 78 135 5.0 11.0 0.00 0.00 0.00 10 1003.7
20260505013206 78 158 8.0 11.0 0.00 0.00 0.00 10 1003.6
20260505012205 79 112 8.0 11.0 0.00 0.00 0.00 10 1003.6
20260505011204 79 158 6.0 11.0 0.00 0.00 0.00 10 1003.5
20260505010206 80 202 9.0 11.0 0.00 0.00 0.00 10 1002.5
20260505005205 80 158 8.0 11.0 0.00 0.00 0.00 10 1002.4
20260505004205 81 158 7.0 11.0 0.00 0.00 0.00 9 1002.4